Location: North Runcton
(52.7000°N, 0.4333°E)
Time: 22:17:44
(UTC+00:00)

Okean 1 - Pass Details

Date: 19 May 2025
Orbit: 477 x 498 km, 82.5° (Epoch: 18 June)

Event Time Altitude Azimuth Distance (km) Brightness Sun altitude
Exits shadow 21:42:53 17° 168° (SSE) 1,289 4.6 -11.9°
Maximum altitude 21:45:29 53° 96° (E) 610 3.3 -12.1°
Drops below altitude 10° 21:49:05 10° 19° (NNE) 1,684 6.4 -12.4°
Sets 21:51:13 0° 15° (NNE) 2,567 7.5 -12.5°
